Flag Weather past 2 weeks in Ramsey, Isle of Man

Now
48 °F

Passing clouds.


Feels Like: 45 °F
Forecast: 46 / 49 °F
Wind: 7 mph from Northwest

Location: Isle Of Man / Ronaldsway Airport

Current Time: Nov 23, 2014 at 1:33:39 AM

Latest Report: Nov 23, 2014 at 12:50 AM


Visibility: N/A

Pressure: 30.01 "Hg

Humidity: 71%

Dew point: 39 °F

Location of RamseyLocation

Historic Weather in Ramsey — Graph

°F

Ramsey temperature yesterday

Maximum temperature yesterday: 55 °F (at 5:50 AM)
Minimum temperature yesterday: 48 °F (at 6:20 PM)
Average temperature yesterday: 52 °F

Past Weeks' High & Low Weather Summary

 TemperatureHumidityPressure
High55 °F (Nov 9, 11:50 AM)100% (Nov 8, 12:20 PM)30.24 "Hg (Nov 8, 12:20 PM)
Low43 °F (Nov 10, 12:50 AM)67% (Nov 8, 3:50 AM)29.12 "Hg (Nov 12, 3:50 AM)
Average51 °F86%29.60 "Hg
* Reported Nov 7 11:50 PM — Nov 22 11:50 PM, Ramsey, Weather by CustomWeather, © 2014

Note: Actual official high and low records may vary slightly from our data, if they occured in-between our weather recording intervals... More about our weather records

Advertising

Ramsey weather history for previous 24 hours

 ConditionsComfort  
Time TempWeatherWind HumidityBarometerVisibility
11:50 PM
Nov 22
48 °FPassing clouds.7 mph76%29.98 "HgN/A
10:50 PM48 °FPassing clouds.8 mph82%29.98 "HgN/A
9:50 PM48 °FPassing clouds.8 mph82%29.98 "HgN/A
8:50 PM50 °FPassing clouds.10 mph76%29.95 "HgN/A
8:20 PM50 °FPassing clouds.8 mph76%29.95 "HgN/A
7:50 PM50 °FPassing clouds.9 mph82%29.92 "HgN/A
7:20 PM50 °FPassing clouds.8 mph82%29.92 "HgN/A
6:50 PM50 °FPassing clouds.8 mph82%29.89 "HgN/A
6:20 PM48 °FPassing clouds.5 mph94%29.89 "HgN/A
5:50 PM50 °FPassing clouds.10 mph88%29.89 "HgN/A
5:20 PM50 °FPassing clouds.8 mph94%29.86 "HgN/A
4:50 PM50 °FRain showers. Passing clouds.7 mph94%29.86 "HgN/A
4:20 PM50 °FPassing clouds.5 mph94%29.83 "HgN/A
3:50 PM52 °FPassing clouds.8 mph88%29.83 "HgN/A
3:20 PM52 °FScattered clouds.9 mph94%29.83 "HgN/A
2:50 PM54 °FScattered clouds.5 mph88%29.80 "HgN/A
2:20 PM54 °FPassing clouds.6 mph88%29.80 "HgN/A
1:50 PM54 °FPartly sunny.5 mph88%29.80 "HgN/A
1:20 PM54 °FMixture of precip. Scattered clouds.6 mph88%29.80 "HgN/A
12:50 PM55 °FPassing clouds.7 mph82%29.77 "HgN/A
12:20 PM54 °FPartly sunny.8 mph88%29.77 "HgN/A
11:50 AM55 °FPartly sunny.12 mph82%29.77 "HgN/A
11:20 AM55 °FPassing clouds.12 mph88%29.77 "HgN/A
10:50 AM55 °FPassing clouds.12 mph88%29.77 "HgN/A
10:20 AM54 °FPassing clouds.12 mph94%29.74 "HgN/A
9:50 AM55 °FPassing clouds.10 mph88%29.74 "HgN/A
9:20 AM54 °FScattered clouds.15 mph94%29.71 "HgN/A
8:50 AM55 °FScattered clouds.16 mph94%29.71 "HgN/A
8:20 AM54 °FPassing clouds.16 mph100%29.68 "HgN/A
7:50 AM55 °FPassing clouds.14 mph100%29.68 "HgN/A
7:20 AM55 °FSprinkles. Passing clouds.15 mph94%29.68 "Hg5 mi
6:50 AM55 °FPassing clouds.15 mph94%29.65 "HgN/A
6:20 AM55 °FSprinkles. Passing clouds.15 mph94%29.65 "HgN/A
5:50 AM55 °FPartly cloudy.15 mph100%29.65 "HgN/A
Weather by CustomWeather, © 2014

See weather overviewHow to use our weather pages